• In Portugal
  • List of Countries
  • For 7 days
  • Water Temperature
  • Satellite Maps
  • Weather Map
  • Weather Widgets
  • user-avatar
    Login

    Hourly Weather Arwayheer

    Today, 20 September, Thursday

    Time Temperature Precipitation Wind Pressure Humidity
    00:00 -7°C° 0 mm 7 mps 607 mmHg 78%
    01:00 -7°C° 0 mm 7 mps 607 mmHg 77%
    02:00 -7°C° 0 mm 7 mps 607 mmHg 77%
    03:00 -6°C° 0 mm 6 mps 607 mmHg 76%
    04:00 -6°C° 0 mm 6 mps 608 mmHg 75%
    05:00 -6°C° 0 mm 6 mps 608 mmHg 76%
    06:00 -6°C° 0 mm 5 mps 608 mmHg 76%
    07:00 -6°C° 0 mm 5 mps 608 mmHg 76%
    08:00 -5°C° 0 mm 6 mps 609 mmHg 71%
    09:00 -4°C° 0 mm 6 mps 609 mmHg 65%
    10:00 -3°C° 0 mm 7 mps 610 mmHg 60%
    11:00 -2°C° 0 mm 7 mps 610 mmHg 57%
    12:00 -1°C° 0 mm 8 mps 610 mmHg 54%
    13:00 -1°C° 0 mm 8 mps 610 mmHg 51%
    14:00 -1°C° 0 mm 8 mps 610 mmHg 51%
    15:00 -1°C° 0 mm 8 mps 609 mmHg 52%
    16:00 -1°C° 0 mm 9 mps 609 mmHg 53%
    17:00 -2°C° 0 mm 8 mps 609 mmHg 58%
    18:00 -3°C° 0 mm 6 mps 609 mmHg 63%
    19:00 -4°C° 0 mm 5 mps 609 mmHg 68%
    20:00 -4°C° 0 mm 5 mps 610 mmHg 68%
    21:00 -4°C° 0 mm 5 mps 610 mmHg 69%
    22:00 -4°C° 0 mm 5 mps 611 mmHg 69%
    23:00 -4°C° 0 mm 5 mps 611 mmHg 69%

    Tomorrow, 21 September, Friday

    Time Temperature Precipitation Wind Pressure Humidity
    00:00 -4°C° 0 mm 4 mps 611 mmHg 69%
    01:00 -4°C° 0 mm 4 mps 611 mmHg 70%
    02:00 -4°C° 0 mm 4 mps 611 mmHg 69%
    03:00 -4°C° 0 mm 4 mps 611 mmHg 69%
    04:00 -5°C° 0 mm 4 mps 611 mmHg 69%
    05:00 -4°C° 0 mm 4 mps 611 mmHg 67%
    06:00 -4°C° 0 mm 4 mps 611 mmHg 65%
    07:00 -4°C° 0 mm 3 mps 612 mmHg 64%
    08:00 -2°C° 0 mm 4 mps 612 mmHg 58%
    09:00 -1°C° 0 mm 5 mps 613 mmHg 51%
    10:00 +1°C° 0 mm 6 mps 613 mmHg 45%
    11:00 +2°C° 0 mm 6 mps 613 mmHg 44%
    12:00 +3°C° 0 mm 5 mps 613 mmHg 42%
    13:00 +3°C° 0 mm 5 mps 613 mmHg 41%
    14:00 +5°C° 0 mm 5 mps 613 mmHg 42%
    15:00 +5°C° 0 mm 5 mps 612 mmHg 43%
    16:00 +5°C° 0 mm 4 mps 612 mmHg 45%
    17:00 +3°C° 0 mm 4 mps 612 mmHg 50%
    18:00 +1°C° 0 mm 3 mps 611 mmHg 55%
    19:00 +1°C° 0 mm 2 mps 611 mmHg 61%
    20:00 +1°C° 0 mm 2 mps 611 mmHg 59%
    21:00 -1°C° 0 mm 2 mps 611 mmHg 57%
    22:00 -1°C° 0 mm 2 mps 611 mmHg 54%
    23:00 -1°C° 0 mm 2 mps 611 mmHg 53%

    Day after tomorrow, 22 September, Saturday

    Time Temperature Precipitation Wind Pressure Humidity
    00:00 -1°C° 0 mm 2 mps 611 mmHg 51%
    01:00 -1°C° 0 mm 2 mps 611 mmHg 49%
    02:00 -1°C° 0 mm 2 mps 611 mmHg 48%
    03:00 -1°C° 0 mm 2 mps 611 mmHg 47%
    04:00 -1°C° 0 mm 2 mps 611 mmHg 46%
    05:00 -1°C° 0 mm 2 mps 611 mmHg 46%
    06:00 +2°C° 0 mm 1 mps 612 mmHg 45%
    07:00 +2°C° 0 mm 1 mps 612 mmHg 45%
    08:00 +4°C° 0 mm 1 mps 613 mmHg 41%
    09:00 +6°C° 0 mm 1 mps 613 mmHg 38%
    10:00 +8°C° 0 mm 1 mps 614 mmHg 35%
    11:00 +8°C° 0 mm 1 mps 614 mmHg 34%
    12:00 +8°C° 0 mm 2 mps 614 mmHg 34%
    13:00 +9°C° 0 mm 2 mps 614 mmHg 33%
    14:00 +9°C° 0 mm 2 mps 614 mmHg 35%
    15:00 +9°C° 0 mm 2 mps 614 mmHg 37%
    16:00 +9°C° 0 mm 2 mps 613 mmHg 39%
    17:00 +7°C° 0 mm 2 mps 613 mmHg 46%
    18:00 +5°C° 0 mm 2 mps 612 mmHg 53%
    19:00 +4°C° 0 mm 1 mps 611 mmHg 60%
    20:00 +3°C° 0 mm 1 mps 611 mmHg 62%
    21:00 +3°C° 0 mm 1 mps 612 mmHg 64%
    22:00 +3°C° 0 mm 1 mps 612 mmHg 65%
    23:00 +2°C° 0 mm 1 mps 612 mmHg 65%

    23 September, Sunday

    Time Temperature Precipitation Wind Pressure Humidity
    00:00 +2°C° 0 mm 1 mps 611 mmHg 65%
    01:00 +2°C° 0 mm 1 mps 611 mmHg 66%
    02:00 +2°C° 0 mm 1 mps 611 mmHg 65%
    03:00 +2°C° 0 mm 1 mps 611 mmHg 64%
    04:00 +2°C° 0 mm 1 mps 611 mmHg 63%
    05:00 +2°C° 0 mm 1 mps 611 mmHg 61%
    06:00 +3°C° 0 mm 1 mps 611 mmHg 59%
    07:00 +3°C° 0 mm 1 mps 612 mmHg 57%
    08:00 +5°C° 0 mm 1 mps 612 mmHg 51%
    09:00 +7°C° 0 mm 1 mps 613 mmHg 45%
    10:00 +9°C° 0 mm 1 mps 613 mmHg 39%
    11:00 +9°C° 0 mm 2 mps 613 mmHg 36%
    12:00 +10°C° 0 mm 2 mps 613 mmHg 34%
    13:00 +12°C° 0 mm 2 mps 613 mmHg 32%
    14:00 +11°C° 0 mm 3 mps 613 mmHg 33%
    15:00 +11°C° 0 mm 3 mps 613 mmHg 34%
    16:00 +12°C° 0 mm 3 mps 612 mmHg 35%
    17:00 +10°C° 0 mm 3 mps 612 mmHg 38%
    18:00 +8°C° 0 mm 2 mps 611 mmHg 41%
    19:00 +6°C° 0 mm 2 mps 610 mmHg 44%
    20:00 +5°C° 0 mm 2 mps 610 mmHg 44%
    21:00 +5°C° 0 mm 2 mps 610 mmHg 44%
    22:00 +5°C° 0 mm 2 mps 610 mmHg 44%
    23:00 +4°C° 0 mm 2 mps 610 mmHg 43%

    24 September, Monday

    Time Temperature Precipitation Wind Pressure Humidity
    00:00 +4°C° 0 mm 2 mps 610 mmHg 42%
    01:00 +4°C° 0 mm 2 mps 609 mmHg 42%
    02:00 +4°C° 0 mm 2 mps 609 mmHg 42%
    03:00 +3°C° 0 mm 2 mps 609 mmHg 42%
    04:00 +4°C° 0 mm 1 mps 609 mmHg 42%
    05:00 +4°C° 0 mm 1 mps 609 mmHg 43%
    06:00 +5°C° 0 mm 1 mps 609 mmHg 44%
    07:00 +5°C° 0 mm 1 mps 609 mmHg 45%
    08:00 +7°C° 0 mm 1 mps 610 mmHg 40%
    09:00 +9°C° 0 mm 1 mps 611 mmHg 35%
    10:00 +10°C° 0 mm 2 mps 611 mmHg 30%
    11:00 +13°C° 0 mm 2 mps 611 mmHg 29%
    12:00 +13°C° 0 mm 3 mps 611 mmHg 28%
    13:00 +14°C° 0 mm 4 mps 611 mmHg 26%
    14:00 +14°C° 0 mm 3 mps 611 mmHg 29%
    15:00 +14°C° 0 mm 3 mps 611 mmHg 31%
    16:00 +14°C° 0 mm 3 mps 610 mmHg 33%
    17:00 +12°C° 0 mm 3 mps 610 mmHg 34%
    18:00 +11°C° 0 mm 3 mps 609 mmHg 35%
    19:00 +10°C° 0 mm 3 mps 609 mmHg 36%
    20:00 +9°C° 0 mm 3 mps 608 mmHg 35%
    21:00 +9°C° 0 mm 3 mps 608 mmHg 35%
    22:00 +8°C° 0 mm 2 mps 608 mmHg 35%
    23:00 +8°C° 0 mm 2 mps 607 mmHg 34%

    25 September, Tuesday

    Time Temperature Precipitation Wind Pressure Humidity
    00:00 +7°C° 0 mm 3 mps 607 mmHg 34%
    01:00 +7°C° 0 mm 3 mps 606 mmHg 33%
    02:00 +7°C° 0 mm 2 mps 606 mmHg 33%
    03:00 +7°C° 0 mm 2 mps 606 mmHg 32%
    04:00 +6°C° 0 mm 2 mps 605 mmHg 32%
    05:00 +7°C° 0 mm 2 mps 606 mmHg 33%
    06:00 +7°C° 0 mm 2 mps 606 mmHg 34%
    07:00 +7°C° 0 mm 2 mps 606 mmHg 35%
    08:00 +9°C° 0 mm 3 mps 607 mmHg 32%
    09:00 +11°C° 0 mm 3 mps 607 mmHg 30%
    10:00 +12°C° 0 mm 4 mps 608 mmHg 28%
    11:00 +13°C° 0 mm 4 mps 607 mmHg 27%
    12:00 +14°C° 0 mm 5 mps 607 mmHg 26%
    13:00 +15°C° 0 mm 6 mps 607 mmHg 25%
    14:00 +15°C° 0 mm 6 mps 607 mmHg 26%
    15:00 +15°C° 0 mm 6 mps 606 mmHg 28%
    16:00 +15°C° 0 mm 5 mps 606 mmHg 29%
    17:00 +13°C° 0 mm 5 mps 605 mmHg 31%
    18:00 +11°C° 0 mm 4 mps 604 mmHg 33%
    19:00 +9°C° 0 mm 3 mps 604 mmHg 35%
    20:00 +9°C° 0 mm 3 mps 604 mmHg 38%
    21:00 +7°C° 0 mm 4 mps 604 mmHg 41%
    22:00 +7°C° 0 mm 4 mps 603 mmHg 44%
    23:00 +6°C° 0 mm 4 mps 603 mmHg 51%
    Show more